This is the latest recevied weather packets stored in our database for station/object KC3ROS. If no packets are shown the sender has not sent any weather packets the latest 1 day(s).
| Time | Temp. | Humidity | Pressure | Rain* | Wind** | Luminosity | Snow |
|---|---|---|---|---|---|---|---|
| 1778093348 | 12.22° C | 84% | 1009.4 hPa | 0 mm | - | 61 W/m² | - |
| 1778092742 | 11.67° C | 85% | 1009.1 hPa | 0 mm | - | 405 W/m² | - |
| 1778090316 | 11.11° C | 89% | 1009.2 hPa | 0 mm | - | 88 W/m² | - |
| 1778089105 | 10.56° C | 89% | 1009.1 hPa | 0 mm | - | 129 W/m² | - |
| 1778088195 | 10° C | 91% | 1009 hPa | 0 mm | - | 264 W/m² | - |
| 1778086076 | 10.56° C | 92% | 1009.1 hPa | 0 mm | - | 117 W/m² | - |
| 1778084250 | 8.89° C | 99% | 1008.8 hPa | 0 mm | - | 113 W/m² | - |
| 1778083341 | 8.89° C | 99% | 1008.8 hPa | 0 mm | - | 192 W/m² | - |
| 1778083040 | 8.89° C | 99% | 1008.7 hPa | 0 mm | - | 182 W/m² | - |
| 1778082736 | 8.89° C | 99% | 1008.5 hPa | 0 mm | - | 113 W/m² | - |
| 1778081598 | 8.89° C | 99% | 1008.2 hPa | 0 mm | - | 106 W/m² | - |
| 1778080691 | 8.89° C | 99% | 1008 hPa | 0 mm | - | 54 W/m² | - |
| 1778080084 | 8.89° C | 99% | 1007.8 hPa | 0 mm | - | 96 W/m² | - |
| 1778079781 | 8.89° C | 99% | 1007.7 hPa | 0 mm | - | 132 W/m² | - |
| 1778079478 | 8.33° C | 99% | 1007.7 hPa | 0 mm | - | 186 W/m² | - |
| 1778077662 | 8.33° C | 99% | 1007.3 hPa | 0 mm | - | 147 W/m² | - |
| 1778076453 | 8.33° C | 99% | 1007 hPa | 0 mm | - | 77 W/m² | - |
| 1778075240 | 8.33° C | 99% | 1006.9 hPa | 0.51 mm | - | 86 W/m² | - |
| 1778074936 | 8.33° C | 99% | 1006.7 hPa | 0 mm | - | 112 W/m² | - |
| 1778073724 | 7.78° C | 99% | 1006.8 hPa | 0 mm | - | 30 W/m² | - |
| 1778073422 | 7.78° C | 99% | 1006.7 hPa | 0.51 mm | - | 42 W/m² | - |
| 1778072512 | 8.33° C | 99% | 1006.8 hPa | 0.51 mm | - | 19 W/m² | - |
| 1778072210 | 8.33° C | 99% | 1006.6 hPa | 0.51 mm | - | 21 W/m² | - |
| 1778071605 | 8.33° C | 99% | 1005.9 hPa | 0 mm | - | 13 W/m² | - |
| 1778071000 | 8.33° C | 99% | 1005.8 hPa | 0 mm | - | 19 W/m² | - |
* Rain latest hour (hover to see other rain measurements)
** Current wind speed in m/s (hover to see current wind gust speed)